Time,TemperatureF,DewpointF,PressureIn,WindDirection,WindDirectionDegrees,WindSpeedMPH,WindSpeedGustMPH,Humidity,HourlyPrecipIn,Conditions,Clouds,dailyrainin,SoftwareType,DateUTC
2013-04-20 00:00:00,59.2,13.0,30.28,NW,310,0.0,4.0,16,0.00,,,0.00,Wunderground v.1.15,2013-04-20 07:00:00,
2013-04-20 00:05:00,59.2,13.0,30.28,NW,310,0.0,4.0,16,0.00,,,0.00,Wunderground v.1.15,2013-04-20 07:05:00,
2013-04-20 00:15:00,59.1,12.9,30.27,NW,310,0.0,3.0,16,0.00,,,0.00,Wunderground v.1.15,2013-04-20 07:15:00,
2013-04-20 00:20:00,58.8,14.0,30.28,NW,310,0.0,3.0,17,0.00,,,0.00,Wunderground v.1.15,2013-04-20 07:20:00,
2013-04-20 00:30:00,59.1,12.9,30.28,NW,310,0.0,3.0,16,0.00,,,0.00,Wunderground v.1.15,2013-04-20 07:30:00,
2013-04-20 00:35:00,59.0,12.8,30.28,NW,310,0.0,3.0,16,0.00,,,0.00,Wunderground v.1.15,2013-04-20 07:35:00,
2013-04-20 00:45:00,59.1,12.9,30.28,NW,310,0.0,1.0,16,0.00,,,0.00,Wunderground v.1.15,2013-04-20 07:45:00,
2013-04-20 00:50:00,58.9,14.1,30.28,NW,310,0.0,1.0,17,0.00,,,0.00,Wunderground v.1.15,2013-04-20 07:50:00,
2013-04-20 01:00:00,58.2,13.5,30.27,NW,310,0.0,2.0,17,0.00,,,0.00,Wunderground v.1.15,2013-04-20 08:00:00,
2013-04-20 01:05:00,57.7,14.4,30.27,NW,310,1.0,4.0,18,0.00,,,0.00,Wunderground v.1.15,2013-04-20 08:05:00,
2013-04-20 01:15:00,57.2,14.0,30.27,NW,310,1.0,4.0,18,0.00,,,0.00,Wunderground v.1.15,2013-04-20 08:15:00,
2013-04-20 01:20:00,57.2,14.0,30.26,NW,310,1.0,1.0,18,0.00,,,0.00,Wunderground v.1.15,2013-04-20 08:20:00,
2013-04-20 01:30:00,58.2,14.8,30.26,NW,310,1.0,4.0,18,0.00,,,0.00,Wunderground v.1.15,2013-04-20 08:30:00,
2013-04-20 01:35:00,58.6,13.9,30.26,NW,310,1.0,4.0,17,0.00,,,0.00,Wunderground v.1.15,2013-04-20 08:35:00,
2013-04-20 01:40:00,58.5,13.8,30.25,NW,310,1.0,1.0,17,0.00,,,0.00,Wunderground v.1.15,2013-04-20 08:40:00,
2013-04-20 01:45:00,58.4,13.7,30.26,NW,310,0.0,4.0,17,0.00,,,0.00,Wunderground v.1.15,2013-04-20 08:45:00,
2013-04-20 01:50:00,58.8,14.0,30.26,NW,310,0.0,4.0,17,0.00,,,0.00,Wunderground v.1.15,2013-04-20 08:50:00,
2013-04-20 02:00:00,58.7,13.9,30.26,NW,310,1.0,4.0,17,0.00,,,0.00,Wunderground v.1.15,2013-04-20 09:00:00,
2013-04-20 02:05:00,58.6,13.9,30.25,NW,310,1.0,5.0,17,0.00,,,0.00,Wunderground v.1.15,2013-04-20 09:05:00,
2013-04-20 02:15:00,57.3,14.1,30.25,NW,310,0.0,2.0,18,0.00,,,0.00,Wunderground v.1.15,2013-04-20 09:15:00,
2013-04-20 02:20:00,56.8,13.7,30.25,NW,310,0.0,5.0,18,0.00,,,0.00,Wunderground v.1.15,2013-04-20 09:20:00,
2013-04-20 02:30:00,56.5,14.7,30.25,NW,310,0.0,5.0,19,0.00,,,0.00,Wunderground v.1.15,2013-04-20 09:30:00,
2013-04-20 02:35:00,56.6,14.8,30.24,NW,310,0.0,5.0,19,0.00,,,0.00,Wunderground v.1.15,2013-04-20 09:35:00,
2013-04-20 02:40:00,56.6,13.5,30.25,NW,310,0.0,3.0,18,0.00,,,0.00,Wunderground v.1.15,2013-04-20 09:40:00,
2013-04-20 02:45:00,56.4,14.6,30.25,NW,310,0.0,3.0,19,0.00,,,0.00,Wunderground v.1.15,2013-04-20 09:45:00,
2013-04-20 02:50:00,55.4,13.8,30.24,NW,310,0.0,3.0,19,0.00,,,0.00,Wunderground v.1.15,2013-04-20 09:50:00,
2013-04-20 03:00:00,53.7,14.6,30.24,NW,310,1.0,3.0,21,0.00,,,0.00,Wunderground v.1.15,2013-04-20 10:00:00,
2013-04-20 03:05:00,53.6,14.5,30.24,NW,310,3.0,4.0,21,0.00,,,0.00,Wunderground v.1.15,2013-04-20 10:05:00,
2013-04-20 03:15:00,53.8,14.7,30.24,NW,310,2.0,4.0,21,0.00,,,0.00,Wunderground v.1.15,2013-04-20 10:15:00,
2013-04-20 03:20:00,53.9,13.7,30.24,NW,310,2.0,4.0,20,0.00,,,0.00,Wunderground v.1.15,2013-04-20 10:20:00,
2013-04-20 03:25:00,54.2,13.9,30.24,NW,310,3.0,4.0,20,0.00,,,0.00,Wunderground v.1.15,2013-04-20 10:25:00,
2013-04-20 03:35:00,54.1,13.9,30.24,WNW,299,2.0,6.0,20,0.00,,,0.00,Wunderground v.1.15,2013-04-20 10:35:00,
2013-04-20 03:40:00,53.0,14.0,30.24,West,269,4.0,6.0,21,0.00,,,0.00,Wunderground v.1.15,2013-04-20 10:40:00,
2013-04-20 03:45:00,54.0,14.9,30.24,West,267,5.0,6.0,21,0.00,,,0.00,Wunderground v.1.15,2013-04-20 10:45:00,
2013-04-20 03:50:00,54.7,14.4,30.23,West,264,5.0,6.0,20,0.00,,,0.00,Wunderground v.1.15,2013-04-20 10:50:00,
2013-04-20 04:00:00,54.4,15.2,30.23,West,271,5.0,6.0,21,0.00,,,0.00,Wunderground v.1.15,2013-04-20 11:00:00,
2013-04-20 04:05:00,54.6,15.4,30.23,West,275,5.0,9.0,21,0.00,,,0.00,Wunderground v.1.15,2013-04-20 11:05:00,
2013-04-20 04:15:00,55.4,14.9,30.23,West,271,5.0,9.0,20,0.00,,,0.00,Wunderground v.1.15,2013-04-20 11:15:00,
2013-04-20 04:20:00,55.6,15.1,30.23,West,266,5.0,5.0,20,0.00,,,0.00,Wunderground v.1.15,2013-04-20 11:20:00,
2013-04-20 04:30:00,55.8,14.1,30.23,West,265,5.0,9.0,19,0.00,,,0.00,Wunderground v.1.15,2013-04-20 11:30:00,
2013-04-20 04:35:00,55.8,14.1,30.22,West,265,4.0,9.0,19,0.00,,,0.00,Wunderground v.1.15,2013-04-20 11:35:00,
2013-04-20 04:45:00,54.0,13.8,30.23,WSW,258,3.0,9.0,20,0.00,,,0.00,Wunderground v.1.15,2013-04-20 11:45:00,
2013-04-20 04:50:00,54.3,14.0,30.23,WSW,258,3.0,3.0,20,0.00,,,0.00,Wunderground v.1.15,2013-04-20 11:50:00,
2013-04-20 05:00:00,54.8,14.4,30.23,WSW,258,3.0,3.0,20,0.00,,,0.00,Wunderground v.1.15,2013-04-20 12:00:00,
2013-04-20 05:05:00,54.9,13.3,30.23,WSW,258,3.0,6.0,19,0.00,,,0.00,Wunderground v.1.15,2013-04-20 12:05:00,
2013-04-20 05:15:00,54.7,14.4,30.23,WSW,258,1.0,6.0,20,0.00,,,0.00,Wunderground v.1.15,2013-04-20 12:15:00,
2013-04-20 05:20:00,54.1,13.9,30.23,WSW,258,0.0,6.0,20,0.00,,,0.00,Wunderground v.1.15,2013-04-20 12:20:00,
2013-04-20 05:25:00,53.6,14.5,30.23,WSW,258,1.0,6.0,21,0.00,,,0.00,Wunderground v.1.15,2013-04-20 12:25:00,
2013-04-20 05:30:00,53.5,14.5,30.23,WSW,258,2.0,2.0,21,0.00,,,0.00,Wunderground v.1.15,2013-04-20 12:30:00,
2013-04-20 05:40:00,54.7,15.5,30.24,WSW,258,2.0,4.0,21,0.00,,,0.00,Wunderground v.1.15,2013-04-20 12:40:00,
2013-04-20 05:50:00,55.7,15.2,30.24,WSW,258,3.0,4.0,20,0.00,,,0.00,Wunderground v.1.15,2013-04-20 12:50:00,
2013-04-20 05:55:00,55.9,15.3,30.24,WSW,258,3.0,5.0,20,0.00,,,0.00,Wunderground v.1.15,2013-04-20 12:55:00,
2013-04-20 06:00:00,55.9,16.5,30.24,WSW,258,3.0,3.0,21,0.00,,,0.00,Wunderground v.1.15,2013-04-20 13:00:00,
2013-04-20 06:10:00,56.0,17.6,30.24,WSW,258,3.0,3.0,22,0.00,,,0.00,Wunderground v.1.15,2013-04-20 13:10:00,
2013-04-20 06:15:00,56.0,17.6,30.25,WSW,258,3.0,6.0,22,0.00,,,0.00,Wunderground v.1.15,2013-04-20 13:15:00,
2013-04-20 06:20:00,55.7,18.4,30.24,WSW,258,3.0,6.0,23,0.00,,,0.00,Wunderground v.1.15,2013-04-20 13:20:00,
2013-04-20 06:30:00,56.3,18.9,30.25,WSW,258,3.0,6.0,23,0.00,,,0.00,Wunderground v.1.15,2013-04-20 13:30:00,
2013-04-20 06:35:00,56.7,19.3,30.25,WSW,258,3.0,6.0,23,0.00,,,0.00,Wunderground v.1.15,2013-04-20 13:35:00,
2013-04-20 06:45:00,57.2,20.7,30.25,WSW,258,1.0,3.0,24,0.00,,,0.00,Wunderground v.1.15,2013-04-20 13:45:00,
2013-04-20 06:50:00,57.3,20.8,30.25,WSW,258,2.0,2.0,24,0.00,,,0.00,Wunderground v.1.15,2013-04-20 13:50:00,
2013-04-20 07:00:00,57.5,20.9,30.25,WSW,258,0.0,6.0,24,0.00,,,0.00,Wunderground v.1.15,2013-04-20 14:00:00,
2013-04-20 07:05:00,58.3,22.6,30.26,WSW,258,0.0,6.0,25,0.00,,,0.00,Wunderground v.1.15,2013-04-20 14:05:00,
2013-04-20 07:15:00,61.9,23.6,30.26,SW,236,3.0,5.0,23,0.00,,,0.00,Wunderground v.1.15,2013-04-20 14:15:00,
2013-04-20 07:20:00,62.9,23.4,30.26,SW,236,2.0,5.0,22,0.00,,,0.00,Wunderground v.1.15,2013-04-20 14:20:00,
2013-04-20 07:30:00,64.2,23.4,30.27,South,177,3.0,3.0,21,0.00,,,0.00,Wunderground v.1.15,2013-04-20 14:30:00,
2013-04-20 07:35:00,64.6,23.7,30.27,South,172,3.0,8.0,21,0.00,,,0.00,Wunderground v.1.15,2013-04-20 14:35:00,
2013-04-20 07:40:00,64.4,24.7,30.28,South,181,5.0,9.0,22,0.00,,,0.00,Wunderground v.1.15,2013-04-20 14:40:00,
2013-04-20 07:45:00,64.3,24.6,30.28,SSE,159,6.0,9.0,22,0.00,,,0.00,Wunderground v.1.15,2013-04-20 14:45:00,
2013-04-20 07:55:00,64.6,24.9,30.28,SSE,157,5.0,8.0,22,0.00,,,0.00,Wunderground v.1.15,2013-04-20 14:55:00,
2013-04-20 08:00:00,64.8,23.9,30.28,SSE,156,5.0,9.0,21,0.00,,,0.00,Wunderground v.1.15,2013-04-20 15:00:00,
2013-04-20 08:10:00,65.2,24.2,30.28,SSE,154,7.0,7.0,21,0.00,,,0.00,Wunderground v.1.15,2013-04-20 15:10:00,
2013-04-20 08:15:00,65.4,24.4,30.28,SSE,153,8.0,9.0,21,0.00,,,0.00,Wunderground v.1.15,2013-04-20 15:15:00,
2013-04-20 08:20:00,65.5,24.5,30.29,SE,146,8.0,11.0,21,0.00,,,0.00,Wunderground v.1.15,2013-04-20 15:20:00,
2013-04-20 08:30:00,65.9,23.7,30.29,SE,133,9.0,11.0,20,0.00,,,0.00,Wunderground v.1.15,2013-04-20 15:30:00,
2013-04-20 08:35:00,66.1,23.8,30.29,SE,125,9.0,16.0,20,0.00,,,0.00,Wunderground v.1.15,2013-04-20 15:35:00,
2013-04-20 08:40:00,67.0,23.3,30.29,ESE,117,9.0,16.0,19,0.00,,,0.00,Wunderground v.1.15,2013-04-20 15:40:00,
2013-04-20 08:50:00,67.4,22.4,30.29,East,89,8.0,8.0,18,0.00,,,0.00,Wunderground v.1.15,2013-04-20 15:50:00,
2013-04-20 09:00:00,67.6,21.2,30.29,ESE,109,9.0,16.0,17,0.00,,,0.00,Wunderground v.1.15,2013-04-20 16:00:00,
2013-04-20 09:05:00,67.8,21.4,30.28,East,94,10.0,19.0,17,0.00,,,0.00,Wunderground v.1.15,2013-04-20 16:05:00,
2013-04-20 09:15:00,68.1,20.2,30.29,ESE,117,10.0,19.0,16,0.00,,,0.00,Wunderground v.1.15,2013-04-20 16:15:00,
2013-04-20 09:20:00,68.3,18.8,30.29,East,84,9.0,19.0,15,0.00,,,0.00,Wunderground v.1.15,2013-04-20 16:20:00,
2013-04-20 09:30:00,68.4,18.9,30.29,SE,131,9.0,9.0,15,0.00,,,0.00,Wunderground v.1.15,2013-04-20 16:30:00,
2013-04-20 09:35:00,68.7,19.1,30.29,East,94,9.0,13.0,15,0.00,,,0.00,Wunderground v.1.15,2013-04-20 16:35:00,
2013-04-20 09:45:00,68.8,19.2,30.30,ESE,109,9.0,18.0,15,0.00,,,0.00,Wunderground v.1.15,2013-04-20 16:45:00,
2013-04-20 09:50:00,69.0,19.4,30.30,SE,144,8.0,18.0,15,0.00,,,0.00,Wunderground v.1.15,2013-04-20 16:50:00,
2013-04-20 10:00:00,69.0,17.8,30.30,SE,142,9.0,9.0,14,0.00,,,0.00,Wunderground v.1.15,2013-04-20 17:00:00,
2013-04-20 10:05:00,68.8,19.2,30.30,East,94,9.0,21.0,15,0.00,,,0.00,Wunderground v.1.15,2013-04-20 17:05:00,
2013-04-20 10:15:00,68.4,18.9,30.30,East,98,9.0,21.0,15,0.00,,,0.00,Wunderground v.1.15,2013-04-20 17:15:00,
2013-04-20 10:20:00,68.9,19.3,30.31,ESE,113,8.0,21.0,15,0.00,,,0.00,Wunderground v.1.15,2013-04-20 17:20:00,
2013-04-20 10:30:00,69.1,21.0,30.31,ESE,120,9.0,9.0,16,0.00,,,0.00,Wunderground v.1.15,2013-04-20 17:30:00,
2013-04-20 10:35:00,69.1,21.0,30.31,ESE,115,8.0,14.0,16,0.00,,,0.00,Wunderground v.1.15,2013-04-20 17:35:00,
2013-04-20 10:40:00,69.2,21.1,30.31,SSE,150,8.0,17.0,16,0.00,,,0.00,Wunderground v.1.15,2013-04-20 17:40:00,
2013-04-20 10:45:00,69.1,21.0,30.31,SE,140,8.0,17.0,16,0.00,,,0.00,Wunderground v.1.15,2013-04-20 17:45:00,
2013-04-20 10:50:00,69.9,20.1,30.31,South,169,6.0,17.0,15,0.00,,,0.00,Wunderground v.1.15,2013-04-20 17:50:00,
2013-04-20 11:00:00,69.9,16.8,30.30,SSE,155,7.0,17.0,13,0.00,,,0.00,Wunderground v.1.15,2013-04-20 18:00:00,
2013-04-20 11:05:00,70.1,16.9,30.30,South,183,8.0,17.0,13,0.00,,,0.00,Wunderground v.1.15,2013-04-20 18:05:00,
2013-04-20 11:15:00,70.3,17.1,30.30,SE,144,7.0,10.0,13,0.00,,,0.00,Wunderground v.1.15,2013-04-20 18:15:00,
2013-04-20 11:20:00,69.9,18.5,30.30,South,171,7.0,17.0,14,0.00,,,0.00,Wunderground v.1.15,2013-04-20 18:20:00,
2013-04-20 11:30:00,69.8,18.4,30.30,SE,131,5.0,17.0,14,0.00,,,0.00,Wunderground v.1.15,2013-04-20 18:30:00,
2013-04-20 11:40:00,70.4,18.9,30.30,SSE,150,6.0,16.0,14,0.00,,,0.00,Wunderground v.1.15,2013-04-20 18:40:00,
2013-04-20 11:45:00,70.0,18.6,30.30,SSE,154,7.0,16.0,14,0.00,,,0.00,Wunderground v.1.15,2013-04-20 18:45:00,
2013-04-20 11:50:00,69.9,18.5,30.30,SSE,158,6.0,6.0,14,0.00,,,0.00,Wunderground v.1.15,2013-04-20 18:50:00,
2013-04-20 12:00:00,70.3,20.4,30.29,SSE,158,5.0,16.0,15,0.00,,,0.00,Wunderground v.1.15,2013-04-20 19:00:00,
2013-04-20 12:05:00,70.7,20.7,30.29,South,169,7.0,16.0,15,0.00,,,0.00,Wunderground v.1.15,2013-04-20 19:05:00,
2013-04-20 12:10:00,71.0,21.0,30.28,South,173,9.0,15.0,15,0.00,,,0.00,Wunderground v.1.15,2013-04-20 19:10:00,
2013-04-20 12:20:00,71.2,21.1,30.28,SE,129,5.0,5.0,15,0.00,,,0.00,Wunderground v.1.15,2013-04-20 19:20:00,
2013-04-20 12:30:00,71.7,19.9,30.28,SE,129,5.0,5.0,14,0.00,,,0.00,Wunderground v.1.15,2013-04-20 19:30:00,
2013-04-20 12:35:00,72.1,20.2,30.28,South,176,4.0,16.0,14,0.00,,,0.00,Wunderground v.1.15,2013-04-20 19:35:00,
2013-04-20 12:45:00,73.0,19.2,30.28,South,176,4.0,16.0,13,0.00,,,0.00,Wunderground v.1.15,2013-04-20 19:45:00,
2013-04-20 12:50:00,72.4,18.7,30.27,South,169,4.0,16.0,13,0.00,,,0.00,Wunderground v.1.15,2013-04-20 19:50:00,
2013-04-20 12:55:00,72.7,19.0,30.27,ESE,117,4.0,16.0,13,0.00,,,0.00,Wunderground v.1.15,2013-04-20 19:55:00,
2013-04-20 13:05:00,73.3,19.4,30.27,SSE,166,5.0,16.0,13,0.00,,,0.00,Wunderground v.1.15,2013-04-20 20:05:00,
2013-04-20 13:10:00,73.0,19.2,30.27,South,171,4.0,4.0,13,0.00,,,0.00,Wunderground v.1.15,2013-04-20 20:10:00,
2013-04-20 13:15:00,73.2,19.4,30.27,SSE,163,4.0,7.0,13,0.00,,,0.00,Wunderground v.1.15,2013-04-20 20:15:00,
2013-04-20 13:20:00,73.3,19.4,30.27,SSE,168,3.0,3.0,13,0.00,,,0.00,Wunderground v.1.15,2013-04-20 20:20:00,
2013-04-20 13:30:00,73.9,18.0,30.27,ESE,116,4.0,4.0,12,0.00,,,0.00,Wunderground v.1.15,2013-04-20 20:30:00,
2013-04-20 13:35:00,73.6,17.8,30.26,SSE,167,4.0,11.0,12,0.00,,,0.00,Wunderground v.1.15,2013-04-20 20:35:00,
2013-04-20 13:45:00,74.0,18.1,30.26,SSE,167,2.0,11.0,12,0.00,,,0.00,Wunderground v.1.15,2013-04-20 20:45:00,
2013-04-20 13:50:00,74.0,18.1,30.26,SE,138,2.0,11.0,12,0.00,,,0.00,Wunderground v.1.15,2013-04-20 20:50:00,
2013-04-20 14:00:00,74.2,18.3,30.26,South,169,4.0,4.0,12,0.00,,,0.00,Wunderground v.1.15,2013-04-20 21:00:00,
2013-04-20 14:10:00,74.7,18.7,30.25,SSE,148,3.0,11.0,12,0.00,,,0.00,Wunderground v.1.15,2013-04-20 21:10:00,
2013-04-20 14:20:00,74.7,18.7,30.25,SSE,168,3.0,3.0,12,0.00,,,0.00,Wunderground v.1.15,2013-04-20 21:20:00,
2013-04-20 14:30:00,75.5,17.3,30.25,SSW,194,3.0,11.0,11,0.00,,,0.00,Wunderground v.1.15,2013-04-20 21:30:00,
2013-04-20 14:35:00,74.8,18.7,30.25,SSE,165,3.0,13.0,12,0.00,,,0.00,Wunderground v.1.15,2013-04-20 21:35:00,
2013-04-20 14:45:00,75.2,17.0,30.24,ESE,117,0.0,13.0,11,0.00,,,0.00,Wunderground v.1.15,2013-04-20 21:45:00,
2013-04-20 14:50:00,75.6,19.4,30.23,South,173,2.0,13.0,12,0.00,,,0.00,Wunderground v.1.15,2013-04-20 21:50:00,
2013-04-20 15:00:00,75.3,19.1,30.23,South,169,4.0,4.0,12,0.00,,,0.00,Wunderground v.1.15,2013-04-20 22:00:00,
2013-04-20 15:10:00,75.5,19.3,30.23,SE,137,3.0,3.0,12,0.00,,,0.00,Wunderground v.1.15,2013-04-20 22:10:00,
2013-04-20 15:15:00,76.2,19.8,30.23,SE,140,4.0,5.0,12,0.00,,,0.00,Wunderground v.1.15,2013-04-20 22:15:00,
2013-04-20 15:25:00,75.9,19.6,30.22,SE,135,3.0,14.0,12,0.00,,,0.00,Wunderground v.1.15,2013-04-20 22:25:00,
2013-04-20 15:35:00,76.4,18.0,30.22,SE,142,6.0,14.0,11,0.00,,,0.00,Wunderground v.1.15,2013-04-20 22:35:00,
2013-04-20 15:45:00,76.1,19.8,30.22,SSE,164,4.0,11.0,12,0.00,,,0.00,Wunderground v.1.15,2013-04-20 22:45:00,
2013-04-20 15:50:00,76.4,20.0,30.21,SE,126,5.0,5.0,12,0.00,,,0.00,Wunderground v.1.15,2013-04-20 22:50:00,
2013-04-20 16:00:00,76.7,18.2,30.21,ESE,118,4.0,11.0,11,0.00,,,0.00,Wunderground v.1.15,2013-04-20 23:00:00,
2013-04-20 16:05:00,76.7,18.2,30.21,East,94,3.0,16.0,11,0.00,,,0.00,Wunderground v.1.15,2013-04-20 23:05:00,
2013-04-20 16:15:00,76.9,18.3,30.21,East,84,3.0,16.0,11,0.00,,,0.00,Wunderground v.1.15,2013-04-20 23:15:00,
2013-04-20 16:20:00,76.8,18.3,30.21,East,94,3.0,16.0,11,0.00,,,0.00,Wunderground v.1.15,2013-04-20 23:20:00,
2013-04-20 16:30:00,76.6,18.1,30.20,SE,129,4.0,4.0,11,0.00,,,0.00,Wunderground v.1.15,2013-04-20 23:30:00,
2013-04-20 16:35:00,76.5,18.0,30.20,SSE,155,4.0,10.0,11,0.00,,,0.00,Wunderground v.1.15,2013-04-20 23:35:00,
2013-04-20 16:40:00,77.1,18.5,30.20,SE,137,2.0,2.0,11,0.00,,,0.00,Wunderground v.1.15,2013-04-20 23:40:00,
2013-04-20 16:50:00,77.3,18.7,30.20,ESE,110,2.0,10.0,11,0.00,,,0.00,Wunderground v.1.15,2013-04-20 23:50:00,
2013-04-20 17:00:00,77.4,18.7,30.20,East,84,4.0,10.0,11,0.00,,,0.00,Wunderground v.1.15,2013-04-21 00:00:00,
2013-04-20 17:05:00,77.8,19.0,30.20,East,94,4.0,10.0,11,0.00,,,0.00,Wunderground v.1.15,2013-04-21 00:05:00,
2013-04-20 17:15:00,77.8,19.0,30.20,East,100,2.0,8.0,11,0.00,,,0.00,Wunderground v.1.15,2013-04-21 00:15:00,
2013-04-20 17:20:00,77.9,19.1,30.20,East,100,2.0,2.0,11,0.00,,,0.00,Wunderground v.1.15,2013-04-21 00:20:00,
2013-04-20 17:25:00,77.6,18.9,30.19,SE,125,2.0,6.0,11,0.00,,,0.00,Wunderground v.1.15,2013-04-21 00:25:00,
2013-04-20 17:30:00,77.5,18.8,30.20,ESE,102,3.0,3.0,11,0.00,,,0.00,Wunderground v.1.15,2013-04-21 00:30:00,
2013-04-20 17:35:00,77.6,18.9,30.19,ESE,102,2.0,9.0,11,0.00,,,0.00,Wunderground v.1.15,2013-04-21 00:35:00,
2013-04-20 17:45:00,77.1,18.5,30.19,SE,137,3.0,9.0,11,0.00,,,0.00,Wunderground v.1.15,2013-04-21 00:45:00,
2013-04-20 17:50:00,77.1,18.5,30.19,SE,137,3.0,3.0,11,0.00,,,0.00,Wunderground v.1.15,2013-04-21 00:50:00,
2013-04-20 18:00:00,77.6,18.9,30.19,SE,137,0.0,9.0,11,0.00,,,0.00,Wunderground v.1.15,2013-04-21 01:00:00,
2013-04-20 18:05:00,77.6,18.9,30.19,South,181,1.0,9.0,11,0.00,,,0.00,Wunderground v.1.15,2013-04-21 01:05:00,
2013-04-20 18:15:00,77.9,19.1,30.19,South,181,0.0,7.0,11,0.00,,,0.00,Wunderground v.1.15,2013-04-21 01:15:00,
2013-04-20 18:20:00,77.8,19.0,30.19,WSW,245,1.0,1.0,11,0.00,,,0.00,Wunderground v.1.15,2013-04-21 01:20:00,
2013-04-20 18:25:00,77.8,19.0,30.19,West,276,1.0,2.0,11,0.00,,,0.00,Wunderground v.1.15,2013-04-21 01:25:00,
2013-04-20 18:30:00,77.4,18.7,30.19,WNW,292,1.0,7.0,11,0.00,,,0.00,Wunderground v.1.15,2013-04-21 01:30:00,
2013-04-20 18:35:00,77.1,18.5,30.20,NW,310,2.0,8.0,11,0.00,,,0.00,Wunderground v.1.15,2013-04-21 01:35:00,
2013-04-20 18:45:00,76.6,18.1,30.20,NW,310,2.0,8.0,11,0.00,,,0.00,Wunderground v.1.15,2013-04-21 01:45:00,
2013-04-20 18:50:00,76.5,20.1,30.20,NW,310,1.0,8.0,12,0.00,,,0.00,Wunderground v.1.15,2013-04-21 01:50:00,
2013-04-20 19:00:00,75.9,19.6,30.20,NW,310,1.0,1.0,12,0.00,,,0.00,Wunderground v.1.15,2013-04-21 02:00:00,
2013-04-20 19:05:00,75.5,21.2,30.20,NW,310,1.0,6.0,13,0.00,,,0.00,Wunderground v.1.15,2013-04-21 02:05:00,
2013-04-20 19:15:00,74.7,20.5,30.20,NW,310,0.0,6.0,13,0.00,,,0.00,Wunderground v.1.15,2013-04-21 02:15:00,
2013-04-20 19:20:00,74.3,20.2,30.20,NW,310,0.0,6.0,13,0.00,,,0.00,Wunderground v.1.15,2013-04-21 02:20:00,
2013-04-20 19:25:00,73.9,19.9,30.20,NW,310,0.0,6.0,13,0.00,,,0.00,Wunderground v.1.15,2013-04-21 02:25:00,
2013-04-20 19:30:00,73.6,21.4,30.20,NW,310,0.0,6.0,14,0.00,,,0.00,Wunderground v.1.15,2013-04-21 02:30:00,
2013-04-20 19:40:00,72.7,20.7,30.21,NW,310,0.0,0.0,14,0.00,,,0.00,Wunderground v.1.15,2013-04-21 02:40:00,
2013-04-20 19:45:00,72.4,22.1,30.21,NW,310,0.0,0.0,15,0.00,,,0.00,Wunderground v.1.15,2013-04-21 02:45:00,
2013-04-20 19:50:00,72.0,21.8,30.22,NW,310,0.0,0.0,15,0.00,,,0.00,Wunderground v.1.15,2013-04-21 02:50:00,
2013-04-20 20:00:00,70.9,22.4,30.22,NW,310,1.0,3.0,16,0.00,,,0.00,Wunderground v.1.15,2013-04-21 03:00:00,
2013-04-20 20:05:00,70.5,22.1,30.22,NW,310,1.0,6.0,16,0.00,,,0.00,Wunderground v.1.15,2013-04-21 03:05:00,
2013-04-20 20:15:00,69.9,21.6,30.23,NW,310,0.0,6.0,16,0.00,,,0.00,Wunderground v.1.15,2013-04-21 03:15:00,
2013-04-20 20:20:00,69.6,22.8,30.23,NW,310,0.0,6.0,17,0.00,,,0.00,Wunderground v.1.15,2013-04-21 03:20:00,
2013-04-20 20:30:00,68.2,21.7,30.23,NW,310,0.0,6.0,17,0.00,,,0.00,Wunderground v.1.15,2013-04-21 03:30:00,
2013-04-20 20:35:00,67.6,22.5,30.24,NW,310,0.0,6.0,18,0.00,,,0.00,Wunderground v.1.15,2013-04-21 03:35:00,
2013-04-20 20:45:00,66.8,21.9,30.24,NW,310,0.0,3.0,18,0.00,,,0.00,Wunderground v.1.15,2013-04-21 03:45:00,
2013-04-20 20:50:00,66.3,22.8,30.24,NW,310,1.0,3.0,19,0.00,,,0.00,Wunderground v.1.15,2013-04-21 03:50:00,
2013-04-20 21:00:00,65.8,22.3,30.24,NW,310,2.0,2.0,19,0.00,,,0.00,Wunderground v.1.15,2013-04-21 04:00:00,
2013-04-20 21:05:00,65.4,23.2,30.24,NW,310,1.0,4.0,20,0.00,,,0.00,Wunderground v.1.15,2013-04-21 04:05:00,
2013-04-20 21:10:00,64.9,22.8,30.25,NW,310,0.0,4.0,20,0.00,,,0.00,Wunderground v.1.15,2013-04-21 04:10:00,
2013-04-20 21:15:00,64.6,22.6,30.25,NW,310,0.0,4.0,20,0.00,,,0.00,Wunderground v.1.15,2013-04-21 04:15:00,
2013-04-20 21:20:00,64.5,22.5,30.25,NW,310,0.0,4.0,20,0.00,,,0.00,Wunderground v.1.15,2013-04-21 04:20:00,
2013-04-20 21:25:00,64.3,22.3,30.25,NW,310,0.0,4.0,20,0.00,,,0.00,Wunderground v.1.15,2013-04-21 04:25:00,
2013-04-20 21:30:00,64.3,22.3,30.25,NW,310,0.0,4.0,20,0.00,,,0.00,Wunderground v.1.15,2013-04-21 04:30:00,
2013-04-20 21:35:00,64.3,22.3,30.25,NW,310,1.0,4.0,20,0.00,,,0.00,Wunderground v.1.15,2013-04-21 04:35:00,
2013-04-20 21:45:00,64.4,22.4,30.25,NW,310,2.0,4.0,20,0.00,,,0.00,Wunderground v.1.15,2013-04-21 04:45:00,
2013-04-20 21:50:00,64.5,22.5,30.25,NW,310,2.0,2.0,20,0.00,,,0.00,Wunderground v.1.15,2013-04-21 04:50:00,
2013-04-20 21:55:00,64.5,22.5,30.25,NW,310,1.0,4.0,20,0.00,,,0.00,Wunderground v.1.15,2013-04-21 04:55:00,
2013-04-20 22:00:00,64.6,22.6,30.25,NW,308,2.0,2.0,20,0.00,,,0.00,Wunderground v.1.15,2013-04-21 05:00:00,
2013-04-20 22:05:00,64.7,22.7,30.25,NW,307,1.0,6.0,20,0.00,,,0.00,Wunderground v.1.15,2013-04-21 05:05:00,
2013-04-20 22:15:00,64.4,22.4,30.25,NW,307,1.0,6.0,20,0.00,,,0.00,Wunderground v.1.15,2013-04-21 05:15:00,
2013-04-20 22:20:00,64.0,22.1,30.25,NW,307,1.0,6.0,20,0.00,,,0.00,Wunderground v.1.15,2013-04-21 05:20:00,
2013-04-20 22:30:00,63.6,22.9,30.25,NW,304,2.0,2.0,21,0.00,,,0.00,Wunderground v.1.15,2013-04-21 05:30:00,
2013-04-20 22:35:00,63.6,22.9,30.25,NW,304,1.0,4.0,21,0.00,,,0.00,Wunderground v.1.15,2013-04-21 05:35:00,
2013-04-20 22:40:00,63.8,23.1,30.25,NW,304,0.0,4.0,21,0.00,,,0.00,Wunderground v.1.15,2013-04-21 05:40:00,
2013-04-20 22:45:00,64.1,23.3,30.25,NW,304,0.0,4.0,21,0.00,,,0.00,Wunderground v.1.15,2013-04-21 05:45:00,
2013-04-20 22:55:00,63.7,23.0,30.25,NW,304,0.0,4.0,21,0.00,,,0.00,Wunderground v.1.15,2013-04-21 05:55:00,
2013-04-20 23:00:00,63.4,22.7,30.25,NW,304,0.0,4.0,21,0.00,,,0.00,Wunderground v.1.15,2013-04-21 06:00:00,
2013-04-20 23:05:00,63.1,22.5,30.25,NW,304,0.0,4.0,21,0.00,,,0.00,Wunderground v.1.15,2013-04-21 06:05:00,
2013-04-20 23:15:00,63.5,25.0,30.25,WNW,300,0.0,4.0,23,0.00,,,0.00,Wunderground v.1.15,2013-04-21 06:15:00,
2013-04-20 23:20:00,64.4,25.8,30.25,WNW,301,1.0,1.0,23,0.00,,,0.00,Wunderground v.1.15,2013-04-21 06:20:00,
2013-04-20 23:30:00,64.3,26.7,30.25,WNW,301,1.0,1.0,24,0.00,,,0.00,Wunderground v.1.15,2013-04-21 06:30:00,
2013-04-20 23:35:00,64.1,25.5,30.25,WNW,298,2.0,2.0,23,0.00,,,0.00,Wunderground v.1.15,2013-04-21 06:35:00,
2013-04-20 23:45:00,64.0,27.4,30.25,WNW,297,1.0,7.0,25,0.00,,,0.00,Wunderground v.1.15,2013-04-21 06:45:00,
2013-04-20 23:50:00,63.8,28.2,30.25,WNW,297,0.0,7.0,26,0.00,,,0.00,Wunderground v.1.15,2013-04-21 06:50:00,